ONEWEB-0082 (45452 NORAD) Tracking and Keplerian Element Data

This shows tracking and keplerian element data for the satellite.

Feedback or suggestion? Click here.




ElementValue
Catalog45452
NameONEWEB-0082
Epoch Orbit1588
Epoch Day187.58334491
Epoch Year2020
RAAN104.2099
Inclination87.5946
Eccentricity0.0024359
Argument of Perigee281.7687
Mean Anonmoly296.5895
Mean Motion14.90266792
Decay Rate0.00042097
L11 45452U 20020AE 20187.58334491 .00042097 00000-0 42915-2 0 9994
L22 45452 87.5946 104.2099 0024359 281.7687 296.5895 14.90266792 15880

Live tracking and technical data element details for ONEWEB-0082 (NORAD 45452). ONEWEB-0082 can be tracked NOW for your location showing map with azimuth and elevation plus other details from your city location.

Track the satellite on the map from your city or location and see movement details for azimuth, elevation, latitude, longitude, range, height, and movement on the map or in text.







IsCatalogInMostPopularTable: catalog: 45452, numindb: 21
Update: records affected: 1



GetName: 45452 ONEWEB-0082

Hit Count: updated at: Mon, 06 Jul 2020 05:20:29 GMT